SL-3 R/B (877 NORAD) Tracking and Keplerian Element Data

This shows tracking and keplerian element data for the satellite.

Feedback or suggestion? Click here.




ElementValue
Catalog877
NameSL-3 R/B
Epoch Orbit20847
Epoch Day34.52316822
Epoch Year2025
RAAN61.0134
Inclination65.0771
Eccentricity0.0047667
Argument of Perigee96.7167
Mean Anonmoly263.9361
Mean Motion14.60891239
Decay Rate5.85E-06
L11 00877U 64053B 25034.52316822 .00000585 00000+0 14160-3 0 9995
L22 00877 65.0771 61.0134 0047667 96.7167 263.9361 14.60891239208475



Live tracking and technical data element details for SL-3 R/B (NORAD 877). SL-3 R/B can be tracked NOW for your location showing map with azimuth and elevation plus other details from your city location.







IsCatalogInMostPopularTable: catalog: 877, numindb: 321
Update: records affected: 1



GetName: 877 SL-3 R/B

Hit Count: updated at: Thu, 15 May 2025 18:35:10 GMT